| time (UTC) | temp F | wind direction | speed MPH | gust MPH | rain 1hr in | rain 24hr in | rain mn in | humidity % | barometer mb |
| 20260506044506 | 64 | 289 | 7.0 | 11.0 | 0.00 | 0.00 | 0.00 | 63 | 1010.9 |
| 20260506043003 | 64 | 285 | 6.0 | 10.0 | 0.00 | 0.00 | 0.00 | 61 | 1010.7 |
| 20260506041608 | 65 | 278 | 6.0 | 9.0 | 0.00 | 0.00 | 0.00 | 59 | 1010.5 |
| 20260506040054 | 65 | 287 | 4.0 | 7.0 | 0.00 | 0.00 | 0.00 | 60 | 1010.2 |
| 20260506034553 | 66 | 280 | 4.0 | 7.0 | 0.00 | 0.00 | 0.00 | 59 | 1010.1 |
| 20260506033043 | 68 | 288 | 2.0 | 5.0 | 0.00 | 0.00 | 0.00 | 57 | 1009.8 |
| 20260506031543 | 69 | 297 | 3.0 | 5.0 | 0.00 | 0.00 | 0.00 | 50 | 1009.7 |
| 20260506030039 | 72 | 13 | 2.0 | 5.0 | 0.00 | 0.00 | 0.00 | 46 | 1009.3 |
| 20260506024536 | 74 | 21 | 3.0 | 6.0 | 0.00 | 0.00 | 0.00 | 43 | 1009.1 |
| 20260506023047 | 75 | 23 | 2.0 | 6.0 | 0.00 | 0.00 | 0.00 | 41 | 1009.0 |
| 20260506021533 | 77 | 25 | 3.0 | 7.0 | 0.00 | 0.00 | 0.00 | 39 | 1008.9 |
| 20260506020022 | 78 | 28 | 4.0 | 10.0 | 0.00 | 0.00 | 0.00 | 37 | 1008.9 |
| 20260506014515 | 78 | 36 | 7.0 | 12.0 | 0.00 | 0.00 | 0.00 | 33 | 1008.8 |
| 20260506013010 | 80 | 32 | 6.0 | 10.0 | 0.00 | 0.00 | 0.00 | 30 | 1008.7 |
| 20260506011506 | 80 | 43 | 4.0 | 10.0 | 0.00 | 0.00 | 0.00 | 29 | 1008.7 |
| 20260506004556 | 81 | 41 | 6.0 | 12.0 | 0.00 | 0.17 | 0.00 | 31 | 1008.6 |
| 20260506003054 | 81 | 347 | 5.0 | 9.0 | 0.00 | 0.17 | 0.00 | 30 | 1008.6 |
| 20260506001552 | 81 | 43 | 5.0 | 11.0 | 0.00 | 0.17 | 0.00 | 29 | 1008.6 |
| 20260506000048 | 81 | 29 | 5.0 | 10.0 | 0.00 | 0.17 | 0.00 | 30 | 1008.7 |
| 20260505234538 | 81 | 9 | 2.0 | 9.0 | 0.00 | 0.17 | 0.00 | 32 | 1008.7 |
| 20260505233035 | 81 | 123 | 3.0 | 6.0 | 0.00 | 0.17 | 0.00 | 29 | 1008.8 |
| 20260505231545 | 81 | 98 | 3.0 | 8.0 | 0.00 | 0.17 | 0.00 | 28 | 1008.9 |
| 20260505230027 | 81 | 11 | 2.0 | 9.0 | 0.00 | 0.17 | 0.00 | 28 | 1008.9 |
| 20260505224520 | 81 | 84 | 5.0 | 10.0 | 0.00 | 0.17 | 0.00 | 27 | 1009.0 |
| 20260505223015 | 80 | 91 | 7.0 | 14.0 | 0.00 | 0.17 | 0.00 | 27 | 1009.2 |
| 20260505221512 | 80 | 37 | 7.0 | 11.0 | 0.00 | 0.17 | 0.00 | 31 | 1009.3 |
| 20260505220107 | 79 | 59 | 6.0 | 12.0 | 0.00 | 0.17 | 0.00 | 33 | 1009.4 |
| 20260505214502 | 79 | 77 | 4.0 | 10.0 | 0.00 | 0.17 | 0.00 | 32 | 1009.5 |
| 20260505213058 | 79 | 65 | 5.0 | 12.0 | 0.00 | 0.17 | 0.00 | 33 | 1009.6 |
| 20260505211554 | 79 | 19 | 8.0 | 13.0 | 0.00 | 0.17 | 0.00 | 34 | 1009.7 |
| 20260505210050 | 78 | 35 | 6.0 | 14.0 | 0.00 | 0.17 | 0.00 | 36 | 1009.7 |
| 20260505204544 | 78 | 13 | 3.0 | 8.0 | 0.00 | 0.17 | 0.00 | 36 | 1009.8 |
| 20260505203056 | 77 | 18 | 2.0 | 12.0 | 0.00 | 0.17 | 0.00 | 40 | 1009.9 |
| 20260505201542 | 76 | 138 | 1.0 | 10.0 | 0.00 | 0.17 | 0.00 | 38 | 1010.0 |
| 20260505200032 | 76 | 138 | 4.0 | 7.0 | 0.00 | 0.17 | 0.00 | 39 | 1010.0 |
| 20260505194526 | 75 | 307 | 2.0 | 9.0 | 0.00 | 0.17 | 0.00 | 41 | 1010.1 |
| 20260505193030 | 75 | 153 | 2.0 | 6.0 | 0.00 | 0.17 | 0.00 | 40 | 1010.2 |
| 20260505191518 | 74 | 123 | 2.0 | 10.0 | 0.00 | 0.17 | 0.00 | 43 | 1010.3 |
| 20260505190017 | 73 | 6 | 0.0 | 10.0 | 0.00 | 0.17 | 0.00 | 46 | 1010.5 |
| 20260505184509 | 72 | 80 | 4.0 | 9.0 | 0.00 | 0.17 | 0.00 | 44 | 1010.5 |
| 20260505183011 | 72 | 332 | 4.0 | 9.0 | 0.00 | 0.17 | 0.00 | 44 | 1010.5 |
| 20260505181600 | 71 | 31 | 3.0 | 8.0 | 0.00 | 0.17 | 0.00 | 46 | 1010.5 |
| 20260505174550 | 71 | 319 | 1.0 | 4.0 | 0.00 | 0.17 | 0.00 | 46 | 1010.3 |
| 20260505173051 | 70 | 293 | 2.0 | 6.0 | 0.00 | 0.17 | 0.00 | 48 | 1010.3 |
| 20260505171546 | 69 | 326 | 0.0 | 5.0 | 0.00 | 0.17 | 0.00 | 48 | 1010.3 |
| 20260505170100 | 69 | 315 | 0.0 | 5.0 | 0.00 | 0.17 | 0.00 | 51 | 1010.2 |
| 20260505164533 | 67 | 281 | 4.0 | 8.0 | 0.00 | 0.17 | 0.00 | 52 | 1010.2 |
| 20260505163033 | 67 | 302 | 2.0 | 7.0 | 0.00 | 0.17 | 0.00 | 55 | 1010.2 |
| 20260505161524 | 66 | 315 | 5.0 | 8.0 | 0.00 | 0.17 | 0.00 | 57 | 1010.2 |
| 20260505153010 | 63 | 282 | 5.0 | 9.0 | 0.00 | 0.17 | 0.00 | 62 | 1010.3 |
| 20260505151505 | 62 | 288 | 5.0 | 10.0 | 0.00 | 0.17 | 0.00 | 64 | 1010.2 |
| 20260505124521 | 0 | 0.0 | 0.0 | 0.00 | 0.17 | 0.00 | 1009.1 | ||
| 20260505123016 | 0 | 0.0 | 0.0 | 0.00 | 0.17 | 0.00 | 1008.9 | ||
| 20260505121515 | -90 | 266 | 2.0 | 3.0 | 0.00 | 0.17 | 0.00 | 80 | 1008.8 |
| 20260505120007 | 55 | 275 | 2.0 | 5.0 | 0.00 | 0.17 | 0.00 | 78 | 1008.7 |
| 20260505114508 | 56 | 273 | 4.0 | 7.0 | 0.00 | 0.17 | 0.00 | 77 | 1008.6 |
| 20260505113015 | 56 | 261 | 4.0 | 7.0 | 0.00 | 0.17 | 0.00 | 77 | 1008.5 |
| 20260505111504 | 57 | 283 | 4.0 | 8.0 | 0.00 | 0.17 | 0.00 | 77 | 1008.5 |
| 20260505101558 | 56 | 281 | 2.0 | 4.0 | 0.00 | 0.17 | 0.00 | 80 | 1008.4 |
| 20260505100059 | 57 | 283 | 3.0 | 6.0 | 0.00 | 0.17 | 0.00 | 79 | 1008.3 |
| 20260505094555 | 57 | 288 | 4.0 | 6.0 | 0.00 | 0.17 | 0.00 | 78 | 1008.2 |
| 20260505093051 | 57 | 267 | 3.0 | 6.0 | 0.00 | 0.17 | 0.00 | 78 | 1008.2 |
| 20260505091550 | 57 | 290 | 3.0 | 6.0 | 0.00 | 0.17 | 0.00 | 79 | 1008.1 |
| 20260505090101 | 57 | 253 | 3.0 | 6.0 | 0.00 | 0.17 | 0.00 | 79 | 1008.1 |
| 20260505084551 | 57 | 278 | 2.0 | 5.0 | 0.00 | 0.17 | 0.00 | 78 | 1008.1 |
| 20260505083054 | 57 | 275 | 1.0 | 3.0 | 0.00 | 0.17 | 0.00 | 77 | 1008.1 |
| 20260505081545 | 58 | 275 | 2.0 | 5.0 | 0.00 | 0.17 | 0.00 | 76 | 1008.0 |
| 20260505080041 | 59 | 282 | 2.0 | 5.0 | 0.00 | 0.17 | 0.00 | 74 | 1007.9 |
| 20260505074536 | 59 | 281 | 4.0 | 9.0 | 0.00 | 0.17 | 0.00 | 73 | 1007.7 |
| 20260505073039 | 59 | 273 | 4.0 | 7.0 | 0.00 | 0.17 | 0.00 | 73 | 1007.7 |
| 20260505071532 | 60 | 271 | 5.0 | 9.0 | 0.00 | 0.17 | 0.00 | 71 | 1007.7 |
| 20260505070029 | 60 | 259 | 5.0 | 9.0 | 0.00 | 0.17 | 0.17 | 70 | 1007.5 |
| 20260505064528 | 60 | 288 | 5.0 | 8.0 | 0.00 | 0.17 | 0.17 | 70 | 1007.5 |
| 20260505063029 | 60 | 275 | 6.0 | 10.0 | 0.00 | 0.17 | 0.17 | 69 | 1007.4 |
| 20260505061530 | 60 | 286 | 4.0 | 8.0 | 0.00 | 0.17 | 0.17 | 67 | 1007.5 |
| 20260505060033 | 61 | 284 | 5.0 | 10.0 | 0.00 | 0.17 | 0.17 | 67 | 1007.4 |